Date String (YYYY-MM-DD hh:mm:ss) UTC,Instrument flags,absolute air pressure of the measurement (hPa),sample flow rate (lpm),inlet stack bypass flow (lpm),air temperature of the measurement (°C),ambient temperature measured by the external sensor (°C),aerosol sample conditioner tube jacket temperature (°C),OPC LED temperature (°C),internal box temperature (°C),relative humidity of the measurement (%),span deviation,mass concentration of particles derived from Lorenz-Mie calculation of OPC scattering (μg/m³),mass concentration of particles derived from Lorenz-Mie calculation of OPC scattering (μg/m³),mass concentration of particles derived from Lorenz-Mie calculation of OPC scattering (μg/m³)
DateTimeUTC,F1_M11,P_M11,Q1_M11,Q2_M11,T1_M11,T2_M11,T3_M11,T4_M11,T5_M11,U1_M11,ZSPAN_M11,X0_M11,X2_M11,X1_M11
2024-04-16 14:00:00,SystemResetWarning,0819.5,5.01,000.00,023.0,022.3,000.0,031.5,024.9,021.2,0000.0,0001.17,0000.41,0000.24
2024-04-16 14:01:00,SystemResetWarning,0819.4,5.01,000.00,023.0,022.3,000.0,031.5,024.9,022.2,0000.0,0001.15,0000.42,0000.24
2024-04-16 14:02:00,SystemResetWarning,0819.4,5.01,000.00,023.0,022.3,000.0,031.5,024.9,023.0,0000.0,0000.79,0000.43,0000.25
2024-04-16 14:03:00,SystemResetWarning,0819.4,5.00,000.00,023.0,022.3,000.0,031.5,024.9,023.4,0000.0,0000.86,0000.46,0000.27
2024-04-16 14:04:00,SystemResetWarning,0819.4,5.00,000.00,023.0,022.3,000.0,031.5,024.9,023.4,0000.0,0000.94,0000.48,0000.27
2024-04-16 14:05:00,SystemResetWarning,0819.5,5.00,000.00,023.0,022.3,000.0,031.5,024.9,023.2,0000.0,0001.60,0000.52,0000.29
2024-04-16 14:06:00,SystemResetWarning,0819.5,4.99,000.00,023.0,022.3,000.0,031.5,024.9,022.8,0000.0,0002.03,0000.57,0000.31
2024-04-16 14:07:00,SystemResetWarning,0819.5,5.00,000.00,023.0,022.3,000.0,031.5,024.9,022.4,0000.0,0002.18,0000.60,0000.32
2024-04-16 14:08:00,SystemResetWarning,0819.8,5.00,000.00,023.0,022.3,000.0,031.5,024.9,021.3,0000.0,0002.32,0000.64,0000.32
2024-04-16 14:09:00,SystemResetWarning,0819.8,5.01,000.00,023.1,022.3,000.0,031.5,024.9,021.8,0000.0,0002.68,0000.68,0000.33
2024-04-16 14:10:00,SystemResetWarning,0819.9,5.00,000.00,023.1,022.3,000.0,031.5,024.9,021.3,0000.0,0004.32,0000.72,0000.34
2024-04-16 14:11:00,SystemResetWarning,0819.7,5.00,000.00,023.1,022.4,000.0,031.5,024.9,021.8,0000.0,0004.85,0000.78,0000.35
2024-04-16 14:12:00,SystemResetWarning,0820.0,4.99,000.00,023.1,022.4,000.0,031.5,024.9,020.8,0000.0,0004.84,0000.78,0000.36
2024-04-16 14:13:00,SystemResetWarning,0820.1,5.00,000.00,023.1,022.4,000.0,031.5,025.0,021.1,0000.0,0004.86,0000.79,0000.35
2024-04-16 14:14:00,SystemResetWarning,0819.6,5.00,000.00,023.1,022.4,000.0,031.5,025.0,020.6,0000.0,0005.02,0000.79,0000.34
2024-04-16 14:15:00,SystemResetWarning,0820.0,5.00,000.00,023.1,022.4,000.0,031.5,025.0,019.0,0000.0,0004.97,0000.79,0000.33
2024-04-16 14:16:00,SystemResetWarning,0820.0,5.00,000.00,023.1,022.5,000.0,031.5,025.0,020.2,0000.0,0004.37,0000.76,0000.32
2024-04-16 14:17:00,SystemResetWarning,0820.0,5.00,000.00,023.1,022.5,000.0,031.6,025.0,019.4,0000.0,0004.02,0000.74,0000.31
2024-04-16 14:18:00,SystemResetWarning,0820.1,5.00,000.00,023.1,022.5,000.0,031.6,025.0,019.7,0000.0,0003.97,0000.73,0000.29
2024-04-16 14:19:00,SystemResetWarning,0820.1,5.00,000.00,023.1,022.5,000.0,031.6,025.0,019.6,0000.0,0003.95,0000.71,0000.29
2024-04-16 14:20:00,SystemResetWarning,0820.0,5.00,000.00,023.1,022.5,000.0,031.6,025.0,019.4,0000.0,0003.64,0000.69,0000.29
2024-04-16 14:21:00,SystemResetWarning,0820.2,5.00,000.00,023.1,022.5,000.0,031.6,025.0,020.0,0000.0,0002.29,0000.70,0000.28
2024-04-16 14:22:00,SystemResetWarning,0819.7,4.99,000.00,023.2,022.5,000.0,031.6,025.0,020.4,0000.0,0001.82,0000.69,0000.27
2024-04-16 14:23:00,SystemResetWarning,0819.9,5.00,000.00,023.2,022.5,000.0,031.6,025.0,020.5,0000.0,0001.85,0000.69,0000.26
2024-04-16 14:24:00,SystemResetWarning,0819.8,5.01,000.00,023.2,022.5,000.0,031.6,025.0,020.3,0000.0,0001.84,0000.68,0000.26
2024-04-16 14:25:00,SystemResetWarning,0819.9,5.00,000.00,023.2,022.5,000.0,031.6,025.0,019.7,0000.0,0001.66,0000.65,0000.26
2024-04-16 14:26:00,SystemResetWarning,0819.8,5.00,000.00,023.2,022.5,000.0,031.6,025.0,018.4,0000.0,0001.56,0000.63,0000.26
2024-04-16 14:27:00,SystemResetWarning,0819.8,5.00,000.00,023.2,022.5,000.0,031.6,025.0,018.7,0000.0,0001.54,0000.63,0000.26
2024-04-16 14:28:00,SystemResetWarning,0819.8,5.00,000.00,023.2,022.5,000.0,031.6,025.0,018.7,0000.0,0001.48,0000.61,0000.26
2024-04-16 14:29:00,SystemResetWarning,0819.8,5.00,000.00,023.2,022.5,000.0,031.6,025.0,018.8,0000.0,0001.49,0000.63,0000.25
2024-04-16 14:30:00,SystemResetWarning,0819.8,5.00,000.00,023.2,022.5,000.0,031.6,025.1,018.9,0000.0,0001.42,0000.65,0000.26
2024-04-16 14:31:00,SystemResetWarning,0820.2,5.00,000.00,023.2,022.5,000.0,031.7,025.1,019.4,0000.0,0001.37,0000.64,0000.26
2024-04-16 14:32:00,SystemResetWarning,0820.0,5.00,000.00,023.2,022.5,000.0,031.7,025.1,019.5,0000.0,0001.31,0000.60,0000.25
2024-04-16 14:33:00,SystemResetWarning,0819.9,5.01,000.00,023.2,022.5,000.0,031.7,025.1,019.7,0000.0,0001.44,0000.58,0000.25
2024-04-16 14:34:00,SystemResetWarning,0819.9,5.01,000.00,023.2,022.5,000.0,031.7,025.1,019.8,0000.0,0001.42,0000.58,0000.25
2024-04-16 14:35:00,SystemResetWarning,0820.0,5.00,000.00,023.3,022.6,000.0,031.7,025.1,019.7,0000.0,0001.39,0000.57,0000.24
2024-04-16 14:36:00,SystemResetWarning,0819.9,5.01,000.00,023.3,022.6,000.0,031.7,025.1,019.7,0000.0,0001.44,0000.58,0000.24
2024-04-16 14:37:00,SystemResetWarning,0820.0,5.00,000.00,023.3,022.6,000.0,031.7,025.1,020.3,0000.0,0001.54,0000.60,0000.23
2024-04-16 14:38:00,SystemResetWarning,0820.0,4.99,000.00,023.3,022.6,000.0,031.7,025.1,020.6,0000.0,0001.97,0000.60,0000.24
2024-04-16 14:39:00,SystemResetWarning,0820.1,4.99,000.00,023.3,022.6,000.0,031.7,025.1,020.3,0000.0,0002.10,0000.56,0000.24
2024-04-16 14:40:00,SystemResetWarning,0820.0,4.99,000.00,023.3,022.6,000.0,031.7,025.1,020.9,0000.0,0002.06,0000.54,0000.24
2024-04-16 14:41:00,SystemResetWarning,0820.0,5.00,000.00,023.3,022.6,000.0,031.7,025.1,021.4,0000.0,0002.03,0000.53,0000.25
2024-04-16 14:42:00,SystemResetWarning,0820.1,5.02,000.00,023.3,022.6,000.0,031.7,025.1,021.0,0000.0,0002.06,0000.53,0000.25
2024-04-16 14:43:00,SystemResetWarning,0820.0,5.01,000.00,023.3,022.7,000.0,031.7,025.1,020.8,0000.0,0002.36,0000.58,0000.27
2024-04-16 14:44:00,SystemResetWarning,0820.1,4.99,000.00,023.3,022.7,000.0,031.7,025.1,020.4,0000.0,0002.18,0000.58,0000.28
2024-04-16 14:45:00,SystemResetWarning,0820.0,4.99,000.00,023.4,022.7,000.0,031.8,025.2,019.3,0000.0,0002.21,0000.60,0000.28
2024-04-16 14:46:00,SystemResetWarning,0820.0,5.00,000.00,023.4,022.7,000.0,031.8,025.2,018.8,0000.0,0002.97,0000.57,0000.29
2024-04-16 14:47:00,SystemResetWarning,0820.0,5.01,000.00,023.4,022.7,000.0,031.8,025.2,018.2,0000.0,0004.47,0000.56,0000.29
2024-04-16 14:48:00,SystemResetWarning,0820.1,5.00,000.00,023.4,022.7,000.0,031.8,025.2,017.7,0000.0,0004.34,0000.53,0000.28
2024-04-16 14:49:00,SystemResetWarning,0820.0,4.99,000.00,023.4,022.7,000.0,031.8,025.2,017.8,0000.0,0003.92,0000.53,0000.27
2024-04-16 14:50:00,SystemResetWarning,0820.1,4.98,000.00,023.4,022.7,000.0,031.8,025.2,020.1,0000.0,0003.84,0000.56,0000.27
2024-04-16 14:51:00,SystemResetWarning,0820.1,5.01,000.00,023.4,022.7,000.0,031.8,025.2,021.3,0000.0,0003.86,0000.55,0000.27
2024-04-16 14:52:00,SystemResetWarning,0820.3,5.01,000.00,023.4,022.7,000.0,031.8,025.2,021.1,0000.0,0003.93,0000.55,0000.27
2024-04-16 14:53:00,SystemResetWarning,0820.2,4.99,000.00,023.4,022.7,000.0,031.8,025.2,020.4,0000.0,0004.16,0000.58,0000.27
2024-04-16 14:54:00,SystemResetWarning,0820.2,4.99,000.00,023.4,022.7,000.0,031.8,025.2,020.9,0000.0,0004.02,0000.55,0000.26
2024-04-16 14:55:00,SystemResetWarning,0820.3,5.00,000.00,023.4,022.7,000.0,031.8,025.2,020.9,0000.0,0003.99,0000.55,0000.26
2024-04-16 14:56:00,SystemResetWarning,0820.1,5.00,000.00,023.4,022.7,000.0,031.8,025.2,020.5,0000.0,0004.01,0000.54,0000.26
2024-04-16 14:57:00,SystemResetWarning,0820.2,5.01,000.00,023.4,022.7,000.0,031.8,025.2,020.4,0000.0,0003.54,0000.55,0000.26
2024-04-16 14:58:00,SystemResetWarning,0820.2,5.00,000.00,023.4,022.7,000.0,031.8,025.2,020.7,0000.0,0001.95,0000.55,0000.26
2024-04-16 14:59:00,SystemResetWarning,0820.3,4.99,000.00,023.4,022.7,000.0,031.8,025.2,020.1,0000.0,0001.81,0000.59,0000.27
